Index of /20260424/WXO-DD/model_rdps/10km/18/052
Name Last modified Size Description
Parent Directory -
20260424T18Z_MSC_RDPS_AbsoluteVorticity_IsbL-0250_RLatLon0.09_PT052H.grib2 2026-04-24 20:57 613K
20260424T18Z_MSC_RDPS_AbsoluteVorticity_IsbL-0500_RLatLon0.09_PT052H.grib2 2026-04-24 20:57 569K
20260424T18Z_MSC_RDPS_AbsoluteVorticity_IsbL-0700_RLatLon0.09_PT052H.grib2 2026-04-24 20:57 624K
20260424T18Z_MSC_RDPS_AbsoluteVorticity_IsbL-0850_RLatLon0.09_PT052H.grib2 2026-04-24 20:57 785K
20260424T18Z_MSC_RDPS_AirTemp_AGL-120m_RLatLon0.09_PT052H.grib2 2026-04-24 20:57 397K
20260424T18Z_MSC_RDPS_AirTemp_AGL-2m_RLatLon0.09_PT052H.grib2 2026-04-24 20:57 634K
20260424T18Z_MSC_RDPS_AirTemp_AGL-40m_RLatLon0.09_PT052H.grib2 2026-04-24 20:57 405K
20260424T18Z_MSC_RDPS_AirTemp_AGL-80m_RLatLon0.09_PT052H.grib2 2026-04-24 20:57 400K
20260424T18Z_MSC_RDPS_AirTemp_IsbL-0001_RLatLon0.09_PT052H.grib2 2026-04-24 20:57 271K
20260424T18Z_MSC_RDPS_AirTemp_IsbL-0005_RLatLon0.09_PT052H.grib2 2026-04-24 20:57 297K
20260424T18Z_MSC_RDPS_AirTemp_IsbL-0010_RLatLon0.09_PT052H.grib2 2026-04-24 20:57 310K
20260424T18Z_MSC_RDPS_AirTemp_IsbL-0020_RLatLon0.09_PT052H.grib2 2026-04-24 20:57 329K
20260424T18Z_MSC_RDPS_AirTemp_IsbL-0030_RLatLon0.09_PT052H.grib2 2026-04-24 20:57 349K
20260424T18Z_MSC_RDPS_AirTemp_IsbL-0050_RLatLon0.09_PT052H.grib2 2026-04-24 20:57 326K
20260424T18Z_MSC_RDPS_AirTemp_IsbL-0100_RLatLon0.09_PT052H.grib2 2026-04-24 20:57 425K
20260424T18Z_MSC_RDPS_AirTemp_IsbL-0150_RLatLon0.09_PT052H.grib2 2026-04-24 20:57 422K
20260424T18Z_MSC_RDPS_AirTemp_IsbL-0175_RLatLon0.09_PT052H.grib2 2026-04-24 20:57 416K
20260424T18Z_MSC_RDPS_AirTemp_IsbL-0200_RLatLon0.09_PT052H.grib2 2026-04-24 20:57 425K
20260424T18Z_MSC_RDPS_AirTemp_IsbL-0225_RLatLon0.09_PT052H.grib2 2026-04-24 20:57 427K
20260424T18Z_MSC_RDPS_AirTemp_IsbL-0250_RLatLon0.09_PT052H.grib2 2026-04-24 20:57 432K
20260424T18Z_MSC_RDPS_AirTemp_IsbL-0275_RLatLon0.09_PT052H.grib2 2026-04-24 20:57 409K
20260424T18Z_MSC_RDPS_AirTemp_IsbL-0300_RLatLon0.09_PT052H.grib2 2026-04-24 20:57 415K
20260424T18Z_MSC_RDPS_AirTemp_IsbL-0350_RLatLon0.09_PT052H.grib2 2026-04-24 20:57 426K
20260424T18Z_MSC_RDPS_AirTemp_IsbL-0400_RLatLon0.09_PT052H.grib2 2026-04-24 20:57 427K
20260424T18Z_MSC_RDPS_AirTemp_IsbL-0450_RLatLon0.09_PT052H.grib2 2026-04-24 20:57 435K
20260424T18Z_MSC_RDPS_AirTemp_IsbL-0500_RLatLon0.09_PT052H.grib2 2026-04-24 20:57 413K
20260424T18Z_MSC_RDPS_AirTemp_IsbL-0550_RLatLon0.09_PT052H.grib2 2026-04-24 20:57 432K
20260424T18Z_MSC_RDPS_AirTemp_IsbL-0600_RLatLon0.09_PT052H.grib2 2026-04-24 20:57 450K
20260424T18Z_MSC_RDPS_AirTemp_IsbL-0650_RLatLon0.09_PT052H.grib2 2026-04-24 20:57 461K
20260424T18Z_MSC_RDPS_AirTemp_IsbL-0700_RLatLon0.09_PT052H.grib2 2026-04-24 20:57 382K
20260424T18Z_MSC_RDPS_AirTemp_IsbL-0750_RLatLon0.09_PT052H.grib2 2026-04-24 20:57 418K
20260424T18Z_MSC_RDPS_AirTemp_IsbL-0800_RLatLon0.09_PT052H.grib2 2026-04-24 20:57 475K
20260424T18Z_MSC_RDPS_AirTemp_IsbL-0850_RLatLon0.09_PT052H.grib2 2026-04-24 20:57 516K
20260424T18Z_MSC_RDPS_AirTemp_IsbL-0875_RLatLon0.09_PT052H.grib2 2026-04-24 20:57 530K
20260424T18Z_MSC_RDPS_AirTemp_IsbL-0900_RLatLon0.09_PT052H.grib2 2026-04-24 20:57 536K
20260424T18Z_MSC_RDPS_AirTemp_IsbL-0925_RLatLon0.09_PT052H.grib2 2026-04-24 20:57 537K
20260424T18Z_MSC_RDPS_AirTemp_IsbL-0950_RLatLon0.09_PT052H.grib2 2026-04-24 20:57 535K
20260424T18Z_MSC_RDPS_AirTemp_IsbL-0970_RLatLon0.09_PT052H.grib2 2026-04-24 20:57 534K
20260424T18Z_MSC_RDPS_AirTemp_IsbL-0985_RLatLon0.09_PT052H.grib2 2026-04-24 20:57 529K
20260424T18Z_MSC_RDPS_AirTemp_IsbL-1000_RLatLon0.09_PT052H.grib2 2026-04-24 20:57 514K
20260424T18Z_MSC_RDPS_AirTemp_IsbL-1015_RLatLon0.09_PT052H.grib2 2026-04-24 20:57 509K
20260424T18Z_MSC_RDPS_Albedo_Sfc_RLatLon0.09_PT052H.grib2 2026-04-24 20:57 162K
20260424T18Z_MSC_RDPS_CAPE_Sfc_RLatLon0.09_PT052H.grib2 2026-04-24 20:57 1.8M
20260424T18Z_MSC_RDPS_CIN_Sfc_RLatLon0.09_PT052H.grib2 2026-04-24 20:57 1.2M
20260424T18Z_MSC_RDPS_CloudWater_EAtm_RLatLon0.09_PT052H.grib2 2026-04-24 20:57 222K
20260424T18Z_MSC_RDPS_ConvectivePrecip-Accum_Sfc_RLatLon0.09_PT052H.grib2 2026-04-24 20:57 1.1M
20260424T18Z_MSC_RDPS_DewPointDepression_AGL-2m_RLatLon0.09_PT052H.grib2 2026-04-24 20:57 420K
20260424T18Z_MSC_RDPS_DewPointDepression_IsbL-0001_RLatLon0.09_PT052H.grib2 2026-04-24 20:57 193
20260424T18Z_MSC_RDPS_DewPointDepression_IsbL-0005_RLatLon0.09_PT052H.grib2 2026-04-24 20:57 193
20260424T18Z_MSC_RDPS_DewPointDepression_IsbL-0010_RLatLon0.09_PT052H.grib2 2026-04-24 20:57 193
20260424T18Z_MSC_RDPS_DewPointDepression_IsbL-0020_RLatLon0.09_PT052H.grib2 2026-04-24 20:57 193
20260424T18Z_MSC_RDPS_DewPointDepression_IsbL-0030_RLatLon0.09_PT052H.grib2 2026-04-24 20:57 193
20260424T18Z_MSC_RDPS_DewPointDepression_IsbL-0050_RLatLon0.09_PT052H.grib2 2026-04-24 20:57 92K
20260424T18Z_MSC_RDPS_DewPointDepression_IsbL-0100_RLatLon0.09_PT052H.grib2 2026-04-24 20:57 126K
20260424T18Z_MSC_RDPS_DewPointDepression_IsbL-0150_RLatLon0.09_PT052H.grib2 2026-04-24 20:57 150K
20260424T18Z_MSC_RDPS_DewPointDepression_IsbL-0175_RLatLon0.09_PT052H.grib2 2026-04-24 20:57 192K
20260424T18Z_MSC_RDPS_DewPointDepression_IsbL-0200_RLatLon0.09_PT052H.grib2 2026-04-24 20:57 234K
20260424T18Z_MSC_RDPS_DewPointDepression_IsbL-0225_RLatLon0.09_PT052H.grib2 2026-04-24 20:57 269K
20260424T18Z_MSC_RDPS_DewPointDepression_IsbL-0250_RLatLon0.09_PT052H.grib2 2026-04-24 20:57 307K
20260424T18Z_MSC_RDPS_DewPointDepression_IsbL-0275_RLatLon0.09_PT052H.grib2 2026-04-24 20:57 316K
20260424T18Z_MSC_RDPS_DewPointDepression_IsbL-0300_RLatLon0.09_PT052H.grib2 2026-04-24 20:57 335K
20260424T18Z_MSC_RDPS_DewPointDepression_IsbL-0350_RLatLon0.09_PT052H.grib2 2026-04-24 20:57 340K
20260424T18Z_MSC_RDPS_DewPointDepression_IsbL-0400_RLatLon0.09_PT052H.grib2 2026-04-24 20:57 353K
20260424T18Z_MSC_RDPS_DewPointDepression_IsbL-0450_RLatLon0.09_PT052H.grib2 2026-04-24 20:57 362K
20260424T18Z_MSC_RDPS_DewPointDepression_IsbL-0500_RLatLon0.09_PT052H.grib2 2026-04-24 20:57 370K
20260424T18Z_MSC_RDPS_DewPointDepression_IsbL-0550_RLatLon0.09_PT052H.grib2 2026-04-24 20:57 383K
20260424T18Z_MSC_RDPS_DewPointDepression_IsbL-0600_RLatLon0.09_PT052H.grib2 2026-04-24 20:57 393K
20260424T18Z_MSC_RDPS_DewPointDepression_IsbL-0650_RLatLon0.09_PT052H.grib2 2026-04-24 20:57 397K
20260424T18Z_MSC_RDPS_DewPointDepression_IsbL-0700_RLatLon0.09_PT052H.grib2 2026-04-24 20:57 410K
20260424T18Z_MSC_RDPS_DewPointDepression_IsbL-0750_RLatLon0.09_PT052H.grib2 2026-04-24 20:57 435K
20260424T18Z_MSC_RDPS_DewPointDepression_IsbL-0800_RLatLon0.09_PT052H.grib2 2026-04-24 20:57 462K
20260424T18Z_MSC_RDPS_DewPointDepression_IsbL-0850_RLatLon0.09_PT052H.grib2 2026-04-24 20:57 482K
20260424T18Z_MSC_RDPS_DewPointDepression_IsbL-0875_RLatLon0.09_PT052H.grib2 2026-04-24 20:57 481K
20260424T18Z_MSC_RDPS_DewPointDepression_IsbL-0900_RLatLon0.09_PT052H.grib2 2026-04-24 20:57 474K
20260424T18Z_MSC_RDPS_DewPointDepression_IsbL-0925_RLatLon0.09_PT052H.grib2 2026-04-24 20:57 462K
20260424T18Z_MSC_RDPS_DewPointDepression_IsbL-0950_RLatLon0.09_PT052H.grib2 2026-04-24 20:57 447K
20260424T18Z_MSC_RDPS_DewPointDepression_IsbL-0970_RLatLon0.09_PT052H.grib2 2026-04-24 20:57 437K
20260424T18Z_MSC_RDPS_DewPointDepression_IsbL-0985_RLatLon0.09_PT052H.grib2 2026-04-24 20:57 434K
20260424T18Z_MSC_RDPS_DewPointDepression_IsbL-1000_RLatLon0.09_PT052H.grib2 2026-04-24 20:57 430K
20260424T18Z_MSC_RDPS_DewPointDepression_IsbL-1015_RLatLon0.09_PT052H.grib2 2026-04-24 20:57 422K
20260424T18Z_MSC_RDPS_DewPoint_AGL-2m_RLatLon0.09_PT052H.grib2 2026-04-24 20:57 312K
20260424T18Z_MSC_RDPS_DownwardLongwaveRadiationFlux-Accum_Sfc_RLatLon0.09_PT052H.grib2 2026-04-24 20:57 385K
20260424T18Z_MSC_RDPS_DownwardShortwaveRadiationFlux-Accum_NTAtm_RLatLon0.09_PT052H.grib2 2026-04-24 20:57 105K
20260424T18Z_MSC_RDPS_DownwardShortwaveRadiationFlux-Accum_Sfc_RLatLon0.09_PT052H.grib2 2026-04-24 20:57 588K
20260424T18Z_MSC_RDPS_FreezingRain-Accum1h_Sfc_RLatLon0.09_PT052H.grib2 2026-04-24 20:57 15K
20260424T18Z_MSC_RDPS_FreezingRain-Accum_Sfc_RLatLon0.09_PT052H.grib2 2026-04-24 20:57 174K
20260424T18Z_MSC_RDPS_GeopotentialHeight_IsbL-0001_RLatLon0.09_PT052H.grib2 2026-04-24 20:57 246K
20260424T18Z_MSC_RDPS_GeopotentialHeight_IsbL-0005_RLatLon0.09_PT052H.grib2 2026-04-24 20:57 343K
20260424T18Z_MSC_RDPS_GeopotentialHeight_IsbL-0010_RLatLon0.09_PT052H.grib2 2026-04-24 20:57 313K
20260424T18Z_MSC_RDPS_GeopotentialHeight_IsbL-0020_RLatLon0.09_PT052H.grib2 2026-04-24 20:57 312K
20260424T18Z_MSC_RDPS_GeopotentialHeight_IsbL-0030_RLatLon0.09_PT052H.grib2 2026-04-24 20:57 411K
20260424T18Z_MSC_RDPS_GeopotentialHeight_IsbL-0050_RLatLon0.09_PT052H.grib2 2026-04-24 20:57 314K
20260424T18Z_MSC_RDPS_GeopotentialHeight_IsbL-0100_RLatLon0.09_PT052H.grib2 2026-04-24 20:57 292K
20260424T18Z_MSC_RDPS_GeopotentialHeight_IsbL-0150_RLatLon0.09_PT052H.grib2 2026-04-24 20:57 232K
20260424T18Z_MSC_RDPS_GeopotentialHeight_IsbL-0175_RLatLon0.09_PT052H.grib2 2026-04-24 20:57 235K
20260424T18Z_MSC_RDPS_GeopotentialHeight_IsbL-0200_RLatLon0.09_PT052H.grib2 2026-04-24 20:57 268K
20260424T18Z_MSC_RDPS_GeopotentialHeight_IsbL-0225_RLatLon0.09_PT052H.grib2 2026-04-24 20:57 270K
20260424T18Z_MSC_RDPS_GeopotentialHeight_IsbL-0250_RLatLon0.09_PT052H.grib2 2026-04-24 20:57 271K
20260424T18Z_MSC_RDPS_GeopotentialHeight_IsbL-0275_RLatLon0.09_PT052H.grib2 2026-04-24 20:57 239K
20260424T18Z_MSC_RDPS_GeopotentialHeight_IsbL-0300_RLatLon0.09_PT052H.grib2 2026-04-24 20:57 238K
20260424T18Z_MSC_RDPS_GeopotentialHeight_IsbL-0350_RLatLon0.09_PT052H.grib2 2026-04-24 20:57 233K
20260424T18Z_MSC_RDPS_GeopotentialHeight_IsbL-0400_RLatLon0.09_PT052H.grib2 2026-04-24 20:57 230K
20260424T18Z_MSC_RDPS_GeopotentialHeight_IsbL-0450_RLatLon0.09_PT052H.grib2 2026-04-24 20:57 298K
20260424T18Z_MSC_RDPS_GeopotentialHeight_IsbL-0500_RLatLon0.09_PT052H.grib2 2026-04-24 20:57 294K
20260424T18Z_MSC_RDPS_GeopotentialHeight_IsbL-0550_RLatLon0.09_PT052H.grib2 2026-04-24 20:57 290K
20260424T18Z_MSC_RDPS_GeopotentialHeight_IsbL-0600_RLatLon0.09_PT052H.grib2 2026-04-24 20:57 286K
20260424T18Z_MSC_RDPS_GeopotentialHeight_IsbL-0650_RLatLon0.09_PT052H.grib2 2026-04-24 20:57 284K
20260424T18Z_MSC_RDPS_GeopotentialHeight_IsbL-0700_RLatLon0.09_PT052H.grib2 2026-04-24 20:57 283K
20260424T18Z_MSC_RDPS_GeopotentialHeight_IsbL-0750_RLatLon0.09_PT052H.grib2 2026-04-24 20:57 284K
20260424T18Z_MSC_RDPS_GeopotentialHeight_IsbL-0800_RLatLon0.09_PT052H.grib2 2026-04-24 20:57 263K
20260424T18Z_MSC_RDPS_GeopotentialHeight_IsbL-0850_RLatLon0.09_PT052H.grib2 2026-04-24 20:57 269K
20260424T18Z_MSC_RDPS_GeopotentialHeight_IsbL-0875_RLatLon0.09_PT052H.grib2 2026-04-24 20:57 272K
20260424T18Z_MSC_RDPS_GeopotentialHeight_IsbL-0900_RLatLon0.09_PT052H.grib2 2026-04-24 20:57 276K
20260424T18Z_MSC_RDPS_GeopotentialHeight_IsbL-0925_RLatLon0.09_PT052H.grib2 2026-04-24 20:57 279K
20260424T18Z_MSC_RDPS_GeopotentialHeight_IsbL-0950_RLatLon0.09_PT052H.grib2 2026-04-24 20:57 282K
20260424T18Z_MSC_RDPS_GeopotentialHeight_IsbL-0970_RLatLon0.09_PT052H.grib2 2026-04-24 20:57 288K
20260424T18Z_MSC_RDPS_GeopotentialHeight_IsbL-0985_RLatLon0.09_PT052H.grib2 2026-04-24 20:57 295K
20260424T18Z_MSC_RDPS_GeopotentialHeight_IsbL-1000_RLatLon0.09_PT052H.grib2 2026-04-24 20:57 305K
20260424T18Z_MSC_RDPS_GeopotentialHeight_IsbL-1015_RLatLon0.09_PT052H.grib2 2026-04-24 20:57 317K
20260424T18Z_MSC_RDPS_Humidex_Sfc_RLatLon0.09_PT052H.grib2 2026-04-24 20:57 2.3M
20260424T18Z_MSC_RDPS_IcePellets-Accum1h_Sfc_RLatLon0.09_PT052H.grib2 2026-04-24 20:57 9.0K
20260424T18Z_MSC_RDPS_IcePellets-Accum_Sfc_RLatLon0.09_PT052H.grib2 2026-04-24 20:57 65K
20260424T18Z_MSC_RDPS_KIndex_Sfc_RLatLon0.09_PT052H.grib2 2026-04-24 20:57 2.5M
20260424T18Z_MSC_RDPS_LatentHeatNetFlux_Sfc_RLatLon0.09_PT052H.grib2 2026-04-24 20:57 296K
20260424T18Z_MSC_RDPS_LiftedIndex-MU-VT_IsbL-0500_RLatLon0.09_PT052H.grib2 2026-04-24 20:57 2.4M
20260424T18Z_MSC_RDPS_NetLongwaveRadiationFlux-Accum_Sfc_RLatLon0.09_PT052H.grib2 2026-04-24 20:57 562K
20260424T18Z_MSC_RDPS_NetShortwaveRadiationFlux-Accum_Sfc_RLatLon0.09_PT052H.grib2 2026-04-24 20:57 588K
20260424T18Z_MSC_RDPS_PlanetaryBoundaryLayerHeight_Sfc_RLatLon0.09_PT052H.grib2 2026-04-24 20:57 1.0M
20260424T18Z_MSC_RDPS_Precip-Accum1h_Sfc_RLatLon0.09_PT052H.grib2 2026-04-24 20:57 1.3M
20260424T18Z_MSC_RDPS_Precip-Accum_Sfc_RLatLon0.09_PT052H.grib2 2026-04-24 20:57 2.1M
20260424T18Z_MSC_RDPS_PrecipRate_Sfc_RLatLon0.09_PT052H.grib2 2026-04-24 20:57 187K
20260424T18Z_MSC_RDPS_PrecipType-Instant_Sfc_RLatLon0.09_PT052H.grib2 2026-04-24 20:57 600K
20260424T18Z_MSC_RDPS_Pressure-Trend3h_Sfc_RLatLon0.09_PT052H.grib2 2026-04-24 20:57 1.2M
20260424T18Z_MSC_RDPS_Pressure_MSL_RLatLon0.09_PT052H.grib2 2026-04-24 20:57 331K
20260424T18Z_MSC_RDPS_Pressure_PVU-1.5_RLatLon0.09_PT052H.grib2 2026-04-24 20:57 2.5M
20260424T18Z_MSC_RDPS_Pressure_PVU-1_RLatLon0.09_PT052H.grib2 2026-04-24 20:57 2.4M
20260424T18Z_MSC_RDPS_Pressure_PVU-2_RLatLon0.09_PT052H.grib2 2026-04-24 20:57 2.4M
20260424T18Z_MSC_RDPS_Pressure_Sfc_RLatLon0.09_PT052H.grib2 2026-04-24 20:57 499K
20260424T18Z_MSC_RDPS_RadiativeTemp_Sfc_RLatLon0.09_PT052H.grib2 2026-04-24 20:57 329K
20260424T18Z_MSC_RDPS_Rain-Accum1h_Sfc_RLatLon0.09_PT052H.grib2 2026-04-24 20:57 612K
20260424T18Z_MSC_RDPS_Rain-Accum_Sfc_RLatLon0.09_PT052H.grib2 2026-04-24 20:57 1.6M
20260424T18Z_MSC_RDPS_RelativeHumidity_AGL-2m_RLatLon0.09_PT052H.grib2 2026-04-24 20:57 1.0M
20260424T18Z_MSC_RDPS_RelativeHumidity_IsbL-0010_RLatLon0.09_PT052H.grib2 2026-04-24 20:57 628K
20260424T18Z_MSC_RDPS_RelativeHumidity_IsbL-0020_RLatLon0.09_PT052H.grib2 2026-04-24 20:57 656K
20260424T18Z_MSC_RDPS_RelativeHumidity_IsbL-0030_RLatLon0.09_PT052H.grib2 2026-04-24 20:57 549K
20260424T18Z_MSC_RDPS_RelativeHumidity_IsbL-0050_RLatLon0.09_PT052H.grib2 2026-04-24 20:57 333K
20260424T18Z_MSC_RDPS_RelativeHumidity_IsbL-0100_RLatLon0.09_PT052H.grib2 2026-04-24 20:57 274K
20260424T18Z_MSC_RDPS_RelativeHumidity_IsbL-0150_RLatLon0.09_PT052H.grib2 2026-04-24 20:57 406K
20260424T18Z_MSC_RDPS_RelativeHumidity_IsbL-0175_RLatLon0.09_PT052H.grib2 2026-04-24 20:57 485K
20260424T18Z_MSC_RDPS_RelativeHumidity_IsbL-0200_RLatLon0.09_PT052H.grib2 2026-04-24 20:57 573K
20260424T18Z_MSC_RDPS_RelativeHumidity_IsbL-0225_RLatLon0.09_PT052H.grib2 2026-04-24 20:57 642K
20260424T18Z_MSC_RDPS_RelativeHumidity_IsbL-0250_RLatLon0.09_PT052H.grib2 2026-04-24 20:57 714K
20260424T18Z_MSC_RDPS_RelativeHumidity_IsbL-0275_RLatLon0.09_PT052H.grib2 2026-04-24 20:57 738K
20260424T18Z_MSC_RDPS_RelativeHumidity_IsbL-0300_RLatLon0.09_PT052H.grib2 2026-04-24 20:57 780K
20260424T18Z_MSC_RDPS_RelativeHumidity_IsbL-0350_RLatLon0.09_PT052H.grib2 2026-04-24 20:57 801K
20260424T18Z_MSC_RDPS_RelativeHumidity_IsbL-0400_RLatLon0.09_PT052H.grib2 2026-04-24 20:57 815K
20260424T18Z_MSC_RDPS_RelativeHumidity_IsbL-0450_RLatLon0.09_PT052H.grib2 2026-04-24 20:57 824K
20260424T18Z_MSC_RDPS_RelativeHumidity_IsbL-0500_RLatLon0.09_PT052H.grib2 2026-04-24 20:57 834K
20260424T18Z_MSC_RDPS_RelativeHumidity_IsbL-0550_RLatLon0.09_PT052H.grib2 2026-04-24 20:57 853K
20260424T18Z_MSC_RDPS_RelativeHumidity_IsbL-0600_RLatLon0.09_PT052H.grib2 2026-04-24 20:57 871K
20260424T18Z_MSC_RDPS_RelativeHumidity_IsbL-0650_RLatLon0.09_PT052H.grib2 2026-04-24 20:57 884K
20260424T18Z_MSC_RDPS_RelativeHumidity_IsbL-0700_RLatLon0.09_PT052H.grib2 2026-04-24 20:57 919K
20260424T18Z_MSC_RDPS_RelativeHumidity_IsbL-0750_RLatLon0.09_PT052H.grib2 2026-04-24 20:57 963K
20260424T18Z_MSC_RDPS_RelativeHumidity_IsbL-0800_RLatLon0.09_PT052H.grib2 2026-04-24 20:57 1.0M
20260424T18Z_MSC_RDPS_RelativeHumidity_IsbL-0850_RLatLon0.09_PT052H.grib2 2026-04-24 20:57 1.1M
20260424T18Z_MSC_RDPS_RelativeHumidity_IsbL-0875_RLatLon0.09_PT052H.grib2 2026-04-24 20:57 1.1M
20260424T18Z_MSC_RDPS_RelativeHumidity_IsbL-0900_RLatLon0.09_PT052H.grib2 2026-04-24 20:57 1.1M
20260424T18Z_MSC_RDPS_RelativeHumidity_IsbL-0925_RLatLon0.09_PT052H.grib2 2026-04-24 20:57 1.1M
20260424T18Z_MSC_RDPS_RelativeHumidity_IsbL-0950_RLatLon0.09_PT052H.grib2 2026-04-24 20:57 1.1M
20260424T18Z_MSC_RDPS_RelativeHumidity_IsbL-0970_RLatLon0.09_PT052H.grib2 2026-04-24 20:57 1.1M
20260424T18Z_MSC_RDPS_RelativeHumidity_IsbL-0985_RLatLon0.09_PT052H.grib2 2026-04-24 20:57 1.0M
20260424T18Z_MSC_RDPS_RelativeHumidity_IsbL-1000_RLatLon0.09_PT052H.grib2 2026-04-24 20:57 1.0M
20260424T18Z_MSC_RDPS_RelativeHumidity_IsbL-1015_RLatLon0.09_PT052H.grib2 2026-04-24 20:57 1.0M
20260424T18Z_MSC_RDPS_Runoff-Accum_Sfc_RLatLon0.09_PT052H.grib2 2026-04-24 20:57 69K
20260424T18Z_MSC_RDPS_SWEATIndex_Sfc_RLatLon0.09_PT052H.grib2 2026-04-24 20:57 2.4M
20260424T18Z_MSC_RDPS_SeeingIndex_EAtm_RLatLon0.09_PT052H.grib2 2026-04-24 20:57 1.0M
20260424T18Z_MSC_RDPS_SensibleHeatNetFlux_Sfc_RLatLon0.09_PT052H.grib2 2026-04-24 20:57 349K
20260424T18Z_MSC_RDPS_ShowalterIndex_IsbL-0500_RLatLon0.09_PT052H.grib2 2026-04-24 20:57 2.6M
20260424T18Z_MSC_RDPS_SkyTransparencyIndex_EAtm_RLatLon0.09_PT052H.grib2 2026-04-24 20:57 734K
20260424T18Z_MSC_RDPS_Snow-Accum1h_Sfc_RLatLon0.09_PT052H.grib2 2026-04-24 20:57 522K
20260424T18Z_MSC_RDPS_Snow-Accum_Sfc_RLatLon0.09_PT052H.grib2 2026-04-24 20:57 906K
20260424T18Z_MSC_RDPS_SnowDensity_Sfc_RLatLon0.09_PT052H.grib2 2026-04-24 20:57 185K
20260424T18Z_MSC_RDPS_SnowDepth_Sfc_RLatLon0.09_PT052H.grib2 2026-04-24 20:57 738K
20260424T18Z_MSC_RDPS_SoilTemp_DBS-0to10cm_RLatLon0.09_PT052H.grib2 2026-04-24 20:57 241K
20260424T18Z_MSC_RDPS_SoilTemp_Sfc_RLatLon0.09_PT052H.grib2 2026-04-24 20:57 289K
20260424T18Z_MSC_RDPS_SoilVolumetricIceContent_Sfc_RLatLon0.09_PT052H.grib2 2026-04-24 20:57 169K
20260424T18Z_MSC_RDPS_SoilVolumetricWaterContent_DBS-0to10cm_RLatLon0.09_PT052H.grib2 2026-04-24 20:57 258K
20260424T18Z_MSC_RDPS_SoilVolumetricWaterContent_DBS-0to1cm_RLatLon0.09_PT052H.grib2 2026-04-24 20:57 343K
20260424T18Z_MSC_RDPS_SpecificHumidity_AGL-120m_RLatLon0.09_PT052H.grib2 2026-04-24 20:57 492K
20260424T18Z_MSC_RDPS_SpecificHumidity_AGL-2m_RLatLon0.09_PT052H.grib2 2026-04-24 20:57 662K
20260424T18Z_MSC_RDPS_SpecificHumidity_AGL-40m_RLatLon0.09_PT052H.grib2 2026-04-24 20:57 497K
20260424T18Z_MSC_RDPS_SpecificHumidity_AGL-80m_RLatLon0.09_PT052H.grib2 2026-04-24 20:57 494K
20260424T18Z_MSC_RDPS_SpecificHumidity_IsbL-0001_RLatLon0.09_PT052H.grib2 2026-04-24 20:57 347K
20260424T18Z_MSC_RDPS_SpecificHumidity_IsbL-0005_RLatLon0.09_PT052H.grib2 2026-04-24 20:57 454K
20260424T18Z_MSC_RDPS_SpecificHumidity_IsbL-0010_RLatLon0.09_PT052H.grib2 2026-04-24 20:57 397K
20260424T18Z_MSC_RDPS_SpecificHumidity_IsbL-0020_RLatLon0.09_PT052H.grib2 2026-04-24 20:57 496K
20260424T18Z_MSC_RDPS_SpecificHumidity_IsbL-0030_RLatLon0.09_PT052H.grib2 2026-04-24 20:57 445K
20260424T18Z_MSC_RDPS_SpecificHumidity_IsbL-0050_RLatLon0.09_PT052H.grib2 2026-04-24 20:57 475K
20260424T18Z_MSC_RDPS_SpecificHumidity_IsbL-0100_RLatLon0.09_PT052H.grib2 2026-04-24 20:57 451K
20260424T18Z_MSC_RDPS_SpecificHumidity_IsbL-0150_RLatLon0.09_PT052H.grib2 2026-04-24 20:57 449K
20260424T18Z_MSC_RDPS_SpecificHumidity_IsbL-0175_RLatLon0.09_PT052H.grib2 2026-04-24 20:57 451K
20260424T18Z_MSC_RDPS_SpecificHumidity_IsbL-0200_RLatLon0.09_PT052H.grib2 2026-04-24 20:57 472K
20260424T18Z_MSC_RDPS_SpecificHumidity_IsbL-0225_RLatLon0.09_PT052H.grib2 2026-04-24 20:57 470K
20260424T18Z_MSC_RDPS_SpecificHumidity_IsbL-0250_RLatLon0.09_PT052H.grib2 2026-04-24 20:57 576K
20260424T18Z_MSC_RDPS_SpecificHumidity_IsbL-0275_RLatLon0.09_PT052H.grib2 2026-04-24 20:57 488K
20260424T18Z_MSC_RDPS_SpecificHumidity_IsbL-0300_RLatLon0.09_PT052H.grib2 2026-04-24 20:57 557K
20260424T18Z_MSC_RDPS_SpecificHumidity_IsbL-0350_RLatLon0.09_PT052H.grib2 2026-04-24 20:57 573K
20260424T18Z_MSC_RDPS_SpecificHumidity_IsbL-0400_RLatLon0.09_PT052H.grib2 2026-04-24 20:57 530K
20260424T18Z_MSC_RDPS_SpecificHumidity_IsbL-0450_RLatLon0.09_PT052H.grib2 2026-04-24 20:57 584K
20260424T18Z_MSC_RDPS_SpecificHumidity_IsbL-0500_RLatLon0.09_PT052H.grib2 2026-04-24 20:57 522K
20260424T18Z_MSC_RDPS_SpecificHumidity_IsbL-0550_RLatLon0.09_PT052H.grib2 2026-04-24 20:57 580K
20260424T18Z_MSC_RDPS_SpecificHumidity_IsbL-0600_RLatLon0.09_PT052H.grib2 2026-04-24 20:57 646K
20260424T18Z_MSC_RDPS_SpecificHumidity_IsbL-0650_RLatLon0.09_PT052H.grib2 2026-04-24 20:57 564K
20260424T18Z_MSC_RDPS_SpecificHumidity_IsbL-0700_RLatLon0.09_PT052H.grib2 2026-04-24 20:57 610K
20260424T18Z_MSC_RDPS_SpecificHumidity_IsbL-0750_RLatLon0.09_PT052H.grib2 2026-04-24 20:57 669K
20260424T18Z_MSC_RDPS_SpecificHumidity_IsbL-0800_RLatLon0.09_PT052H.grib2 2026-04-24 20:57 749K
20260424T18Z_MSC_RDPS_SpecificHumidity_IsbL-0850_RLatLon0.09_PT052H.grib2 2026-04-24 20:57 815K
20260424T18Z_MSC_RDPS_SpecificHumidity_IsbL-0875_RLatLon0.09_PT052H.grib2 2026-04-24 20:57 837K
20260424T18Z_MSC_RDPS_SpecificHumidity_IsbL-0900_RLatLon0.09_PT052H.grib2 2026-04-24 20:57 710K
20260424T18Z_MSC_RDPS_SpecificHumidity_IsbL-0925_RLatLon0.09_PT052H.grib2 2026-04-24 20:57 710K
20260424T18Z_MSC_RDPS_SpecificHumidity_IsbL-0950_RLatLon0.09_PT052H.grib2 2026-04-24 20:57 703K
20260424T18Z_MSC_RDPS_SpecificHumidity_IsbL-0970_RLatLon0.09_PT052H.grib2 2026-04-24 20:57 692K
20260424T18Z_MSC_RDPS_SpecificHumidity_IsbL-0985_RLatLon0.09_PT052H.grib2 2026-04-24 20:57 687K
20260424T18Z_MSC_RDPS_SpecificHumidity_IsbL-1000_RLatLon0.09_PT052H.grib2 2026-04-24 20:57 681K
20260424T18Z_MSC_RDPS_SpecificHumidity_IsbL-1015_RLatLon0.09_PT052H.grib2 2026-04-24 20:57 674K
20260424T18Z_MSC_RDPS_SpecificHumidity_Sfc_RLatLon0.09_PT052H.grib2 2026-04-24 20:57 346K
20260424T18Z_MSC_RDPS_StormRelativeHelicity_EtaL-10000_RLatLon0.09_PT052H.grib2 2026-04-24 20:57 1.1M
20260424T18Z_MSC_RDPS_StormSeverityIndex_EtaL-10000_RLatLon0.09_PT052H.grib2 2026-04-24 20:57 1.2M
20260424T18Z_MSC_RDPS_Thickness_IsbL-0850to0700_RLatLon0.09_PT052H.grib2 2026-04-24 20:57 196K
20260424T18Z_MSC_RDPS_Thickness_IsbL-1000to0500_RLatLon0.09_PT052H.grib2 2026-04-24 20:57 205K
20260424T18Z_MSC_RDPS_Thickness_IsbL-1000to0850_RLatLon0.09_PT052H.grib2 2026-04-24 20:57 188K
20260424T18Z_MSC_RDPS_TotalCloudCover_Sfc_RLatLon0.09_PT052H.grib2 2026-04-24 20:57 668K
20260424T18Z_MSC_RDPS_TotalTotalsIndex_Sfc_RLatLon0.09_PT052H.grib2 2026-04-24 20:57 2.4M
20260424T18Z_MSC_RDPS_UVIndex-ClearSky_Sfc_RLatLon0.09_PT052H.grib2 2026-04-24 20:57 175K
20260424T18Z_MSC_RDPS_UVIndex_Sfc_RLatLon0.09_PT052H.grib2 2026-04-24 20:57 412K
20260424T18Z_MSC_RDPS_UpwardLongwaveRadiationFlux_NTAtm_RLatLon0.09_PT052H.grib2 2026-04-24 20:57 507K
20260424T18Z_MSC_RDPS_UpwardShortwaveRadiationFlux_NTAtm_RLatLon0.09_PT052H.grib2 2026-04-24 20:57 455K
20260424T18Z_MSC_RDPS_VerticalVelocity_IsbL-0250_RLatLon0.09_PT052H.grib2 2026-04-24 20:57 431K
20260424T18Z_MSC_RDPS_VerticalVelocity_IsbL-0500_RLatLon0.09_PT052H.grib2 2026-04-24 20:57 546K
20260424T18Z_MSC_RDPS_VerticalVelocity_IsbL-0700_RLatLon0.09_PT052H.grib2 2026-04-24 20:57 600K
20260424T18Z_MSC_RDPS_VerticalVelocity_IsbL-0850_RLatLon0.09_PT052H.grib2 2026-04-24 20:57 704K
20260424T18Z_MSC_RDPS_VerticalWindShear_EtaL-6500_RLatLon0.09_PT052H.grib2 2026-04-24 20:57 1.2M
20260424T18Z_MSC_RDPS_WindChill_Sfc_RLatLon0.09_PT052H.grib2 2026-04-24 20:57 1.1M
20260424T18Z_MSC_RDPS_WindDir_AGL-10m_RLatLon0.09_PT052H.grib2 2026-04-24 20:57 1.0M
20260424T18Z_MSC_RDPS_WindDir_AGL-120m_RLatLon0.09_PT052H.grib2 2026-04-24 20:57 623K
20260424T18Z_MSC_RDPS_WindDir_AGL-40m_RLatLon0.09_PT052H.grib2 2026-04-24 20:57 645K
20260424T18Z_MSC_RDPS_WindDir_AGL-80m_RLatLon0.09_PT052H.grib2 2026-04-24 20:57 632K
20260424T18Z_MSC_RDPS_WindDir_IsbL-0001_RLatLon0.09_PT052H.grib2 2026-04-24 20:57 285K
20260424T18Z_MSC_RDPS_WindDir_IsbL-0005_RLatLon0.09_PT052H.grib2 2026-04-24 20:57 371K
20260424T18Z_MSC_RDPS_WindDir_IsbL-0010_RLatLon0.09_PT052H.grib2 2026-04-24 20:57 397K
20260424T18Z_MSC_RDPS_WindDir_IsbL-0020_RLatLon0.09_PT052H.grib2 2026-04-24 20:57 420K
20260424T18Z_MSC_RDPS_WindDir_IsbL-0030_RLatLon0.09_PT052H.grib2 2026-04-24 20:57 419K
20260424T18Z_MSC_RDPS_WindDir_IsbL-0050_RLatLon0.09_PT052H.grib2 2026-04-24 20:57 431K
20260424T18Z_MSC_RDPS_WindDir_IsbL-0100_RLatLon0.09_PT052H.grib2 2026-04-24 20:57 415K
20260424T18Z_MSC_RDPS_WindDir_IsbL-0150_RLatLon0.09_PT052H.grib2 2026-04-24 20:57 420K
20260424T18Z_MSC_RDPS_WindDir_IsbL-0175_RLatLon0.09_PT052H.grib2 2026-04-24 20:57 442K
20260424T18Z_MSC_RDPS_WindDir_IsbL-0200_RLatLon0.09_PT052H.grib2 2026-04-24 20:57 454K
20260424T18Z_MSC_RDPS_WindDir_IsbL-0225_RLatLon0.09_PT052H.grib2 2026-04-24 20:57 457K
20260424T18Z_MSC_RDPS_WindDir_IsbL-0250_RLatLon0.09_PT052H.grib2 2026-04-24 20:57 461K
20260424T18Z_MSC_RDPS_WindDir_IsbL-0275_RLatLon0.09_PT052H.grib2 2026-04-24 20:57 479K
20260424T18Z_MSC_RDPS_WindDir_IsbL-0300_RLatLon0.09_PT052H.grib2 2026-04-24 20:57 482K
20260424T18Z_MSC_RDPS_WindDir_IsbL-0350_RLatLon0.09_PT052H.grib2 2026-04-24 20:57 500K
20260424T18Z_MSC_RDPS_WindDir_IsbL-0400_RLatLon0.09_PT052H.grib2 2026-04-24 20:57 515K
20260424T18Z_MSC_RDPS_WindDir_IsbL-0450_RLatLon0.09_PT052H.grib2 2026-04-24 20:57 530K
20260424T18Z_MSC_RDPS_WindDir_IsbL-0500_RLatLon0.09_PT052H.grib2 2026-04-24 20:57 546K
20260424T18Z_MSC_RDPS_WindDir_IsbL-0550_RLatLon0.09_PT052H.grib2 2026-04-24 20:57 567K
20260424T18Z_MSC_RDPS_WindDir_IsbL-0600_RLatLon0.09_PT052H.grib2 2026-04-24 20:57 597K
20260424T18Z_MSC_RDPS_WindDir_IsbL-0650_RLatLon0.09_PT052H.grib2 2026-04-24 20:57 638K
20260424T18Z_MSC_RDPS_WindDir_IsbL-0700_RLatLon0.09_PT052H.grib2 2026-04-24 20:57 681K
20260424T18Z_MSC_RDPS_WindDir_IsbL-0750_RLatLon0.09_PT052H.grib2 2026-04-24 20:57 739K
20260424T18Z_MSC_RDPS_WindDir_IsbL-0800_RLatLon0.09_PT052H.grib2 2026-04-24 20:57 816K
20260424T18Z_MSC_RDPS_WindDir_IsbL-0850_RLatLon0.09_PT052H.grib2 2026-04-24 20:57 889K
20260424T18Z_MSC_RDPS_WindDir_IsbL-0875_RLatLon0.09_PT052H.grib2 2026-04-24 20:57 912K
20260424T18Z_MSC_RDPS_WindDir_IsbL-0900_RLatLon0.09_PT052H.grib2 2026-04-24 20:57 921K
20260424T18Z_MSC_RDPS_WindDir_IsbL-0925_RLatLon0.09_PT052H.grib2 2026-04-24 20:57 926K
20260424T18Z_MSC_RDPS_WindDir_IsbL-0950_RLatLon0.09_PT052H.grib2 2026-04-24 20:57 924K
20260424T18Z_MSC_RDPS_WindDir_IsbL-0970_RLatLon0.09_PT052H.grib2 2026-04-24 20:57 928K
20260424T18Z_MSC_RDPS_WindDir_IsbL-0985_RLatLon0.09_PT052H.grib2 2026-04-24 20:57 941K
20260424T18Z_MSC_RDPS_WindDir_IsbL-1000_RLatLon0.09_PT052H.grib2 2026-04-24 20:57 954K
20260424T18Z_MSC_RDPS_WindDir_IsbL-1015_RLatLon0.09_PT052H.grib2 2026-04-24 20:57 969K
20260424T18Z_MSC_RDPS_WindGust-Max_AGL-10m_RLatLon0.09_PT052H.grib2 2026-04-24 20:57 947K
20260424T18Z_MSC_RDPS_WindGust-Min_AGL-10m_RLatLon0.09_PT052H.grib2 2026-04-24 20:57 1.0M
20260424T18Z_MSC_RDPS_WindGust_AGL-10m_RLatLon0.09_PT052H.grib2 2026-04-24 20:57 937K
20260424T18Z_MSC_RDPS_WindSpeed_AGL-10m_RLatLon0.09_PT052H.grib2 2026-04-24 20:57 850K
20260424T18Z_MSC_RDPS_WindSpeed_AGL-120m_RLatLon0.09_PT052H.grib2 2026-04-24 20:57 550K
20260424T18Z_MSC_RDPS_WindSpeed_AGL-40m_RLatLon0.09_PT052H.grib2 2026-04-24 20:57 557K
20260424T18Z_MSC_RDPS_WindSpeed_AGL-80m_RLatLon0.09_PT052H.grib2 2026-04-24 20:57 553K
20260424T18Z_MSC_RDPS_WindSpeed_IsbL-0001_RLatLon0.09_PT052H.grib2 2026-04-24 20:57 252K
20260424T18Z_MSC_RDPS_WindSpeed_IsbL-0005_RLatLon0.09_PT052H.grib2 2026-04-24 20:57 301K
20260424T18Z_MSC_RDPS_WindSpeed_IsbL-0010_RLatLon0.09_PT052H.grib2 2026-04-24 20:57 317K
20260424T18Z_MSC_RDPS_WindSpeed_IsbL-0020_RLatLon0.09_PT052H.grib2 2026-04-24 20:57 337K
20260424T18Z_MSC_RDPS_WindSpeed_IsbL-0030_RLatLon0.09_PT052H.grib2 2026-04-24 20:57 332K
20260424T18Z_MSC_RDPS_WindSpeed_IsbL-0050_RLatLon0.09_PT052H.grib2 2026-04-24 20:57 470K
20260424T18Z_MSC_RDPS_WindSpeed_IsbL-0100_RLatLon0.09_PT052H.grib2 2026-04-24 20:57 478K
20260424T18Z_MSC_RDPS_WindSpeed_IsbL-0150_RLatLon0.09_PT052H.grib2 2026-04-24 20:57 379K
20260424T18Z_MSC_RDPS_WindSpeed_IsbL-0175_RLatLon0.09_PT052H.grib2 2026-04-24 20:57 429K
20260424T18Z_MSC_RDPS_WindSpeed_IsbL-0200_RLatLon0.09_PT052H.grib2 2026-04-24 20:57 447K
20260424T18Z_MSC_RDPS_WindSpeed_IsbL-0225_RLatLon0.09_PT052H.grib2 2026-04-24 20:57 456K
20260424T18Z_MSC_RDPS_WindSpeed_IsbL-0250_RLatLon0.09_PT052H.grib2 2026-04-24 20:57 459K
20260424T18Z_MSC_RDPS_WindSpeed_IsbL-0275_RLatLon0.09_PT052H.grib2 2026-04-24 20:57 475K
20260424T18Z_MSC_RDPS_WindSpeed_IsbL-0300_RLatLon0.09_PT052H.grib2 2026-04-24 20:57 471K
20260424T18Z_MSC_RDPS_WindSpeed_IsbL-0350_RLatLon0.09_PT052H.grib2 2026-04-24 20:57 483K
20260424T18Z_MSC_RDPS_WindSpeed_IsbL-0400_RLatLon0.09_PT052H.grib2 2026-04-24 20:57 467K
20260424T18Z_MSC_RDPS_WindSpeed_IsbL-0450_RLatLon0.09_PT052H.grib2 2026-04-24 20:57 464K
20260424T18Z_MSC_RDPS_WindSpeed_IsbL-0500_RLatLon0.09_PT052H.grib2 2026-04-24 20:57 583K
20260424T18Z_MSC_RDPS_WindSpeed_IsbL-0550_RLatLon0.09_PT052H.grib2 2026-04-24 20:57 586K
20260424T18Z_MSC_RDPS_WindSpeed_IsbL-0600_RLatLon0.09_PT052H.grib2 2026-04-24 20:57 599K
20260424T18Z_MSC_RDPS_WindSpeed_IsbL-0650_RLatLon0.09_PT052H.grib2 2026-04-24 20:57 618K
20260424T18Z_MSC_RDPS_WindSpeed_IsbL-0700_RLatLon0.09_PT052H.grib2 2026-04-24 20:57 683K
20260424T18Z_MSC_RDPS_WindSpeed_IsbL-0750_RLatLon0.09_PT052H.grib2 2026-04-24 20:57 714K
20260424T18Z_MSC_RDPS_WindSpeed_IsbL-0800_RLatLon0.09_PT052H.grib2 2026-04-24 20:57 763K
20260424T18Z_MSC_RDPS_WindSpeed_IsbL-0850_RLatLon0.09_PT052H.grib2 2026-04-24 20:57 818K
20260424T18Z_MSC_RDPS_WindSpeed_IsbL-0875_RLatLon0.09_PT052H.grib2 2026-04-24 20:57 839K
20260424T18Z_MSC_RDPS_WindSpeed_IsbL-0900_RLatLon0.09_PT052H.grib2 2026-04-24 20:57 808K
20260424T18Z_MSC_RDPS_WindSpeed_IsbL-0925_RLatLon0.09_PT052H.grib2 2026-04-24 20:57 815K
20260424T18Z_MSC_RDPS_WindSpeed_IsbL-0950_RLatLon0.09_PT052H.grib2 2026-04-24 20:57 815K
20260424T18Z_MSC_RDPS_WindSpeed_IsbL-0970_RLatLon0.09_PT052H.grib2 2026-04-24 20:57 864K
20260424T18Z_MSC_RDPS_WindSpeed_IsbL-0985_RLatLon0.09_PT052H.grib2 2026-04-24 20:57 864K
20260424T18Z_MSC_RDPS_WindSpeed_IsbL-1000_RLatLon0.09_PT052H.grib2 2026-04-24 20:57 861K
20260424T18Z_MSC_RDPS_WindSpeed_IsbL-1015_RLatLon0.09_PT052H.grib2 2026-04-24 20:57 850K
20260424T18Z_MSC_RDPS_WindU_AGL-10m_RLatLon0.09_PT052H.grib2 2026-04-24 20:57 439K
20260424T18Z_MSC_RDPS_WindU_AGL-120m_RLatLon0.09_PT052H.grib2 2026-04-24 20:57 421K
20260424T18Z_MSC_RDPS_WindU_AGL-40m_RLatLon0.09_PT052H.grib2 2026-04-24 20:57 543K
20260424T18Z_MSC_RDPS_WindU_AGL-80m_RLatLon0.09_PT052H.grib2 2026-04-24 20:57 540K
20260424T18Z_MSC_RDPS_WindU_IsbL-0001_RLatLon0.09_PT052H.grib2 2026-04-24 20:57 293K
20260424T18Z_MSC_RDPS_WindU_IsbL-0005_RLatLon0.09_PT052H.grib2 2026-04-24 20:57 293K
20260424T18Z_MSC_RDPS_WindU_IsbL-0010_RLatLon0.09_PT052H.grib2 2026-04-24 20:57 307K
20260424T18Z_MSC_RDPS_WindU_IsbL-0020_RLatLon0.09_PT052H.grib2 2026-04-24 20:57 365K
20260424T18Z_MSC_RDPS_WindU_IsbL-0030_RLatLon0.09_PT052H.grib2 2026-04-24 20:57 331K
20260424T18Z_MSC_RDPS_WindU_IsbL-0050_RLatLon0.09_PT052H.grib2 2026-04-24 20:57 360K
20260424T18Z_MSC_RDPS_WindU_IsbL-0100_RLatLon0.09_PT052H.grib2 2026-04-24 20:57 435K
20260424T18Z_MSC_RDPS_WindU_IsbL-0150_RLatLon0.09_PT052H.grib2 2026-04-24 20:57 397K
20260424T18Z_MSC_RDPS_WindU_IsbL-0175_RLatLon0.09_PT052H.grib2 2026-04-24 20:57 423K
20260424T18Z_MSC_RDPS_WindU_IsbL-0200_RLatLon0.09_PT052H.grib2 2026-04-24 20:57 440K
20260424T18Z_MSC_RDPS_WindU_IsbL-0225_RLatLon0.09_PT052H.grib2 2026-04-24 20:57 347K
20260424T18Z_MSC_RDPS_WindU_IsbL-0250_RLatLon0.09_PT052H.grib2 2026-04-24 20:57 348K
20260424T18Z_MSC_RDPS_WindU_IsbL-0275_RLatLon0.09_PT052H.grib2 2026-04-24 20:57 362K
20260424T18Z_MSC_RDPS_WindU_IsbL-0300_RLatLon0.09_PT052H.grib2 2026-04-24 20:57 358K
20260424T18Z_MSC_RDPS_WindU_IsbL-0350_RLatLon0.09_PT052H.grib2 2026-04-24 20:57 367K
20260424T18Z_MSC_RDPS_WindU_IsbL-0400_RLatLon0.09_PT052H.grib2 2026-04-24 20:57 472K
20260424T18Z_MSC_RDPS_WindU_IsbL-0450_RLatLon0.09_PT052H.grib2 2026-04-24 20:57 471K
20260424T18Z_MSC_RDPS_WindU_IsbL-0500_RLatLon0.09_PT052H.grib2 2026-04-24 20:57 472K
20260424T18Z_MSC_RDPS_WindU_IsbL-0550_RLatLon0.09_PT052H.grib2 2026-04-24 20:57 474K
20260424T18Z_MSC_RDPS_WindU_IsbL-0600_RLatLon0.09_PT052H.grib2 2026-04-24 20:57 485K
20260424T18Z_MSC_RDPS_WindU_IsbL-0650_RLatLon0.09_PT052H.grib2 2026-04-24 20:57 487K
20260424T18Z_MSC_RDPS_WindU_IsbL-0700_RLatLon0.09_PT052H.grib2 2026-04-24 20:57 507K
20260424T18Z_MSC_RDPS_WindU_IsbL-0750_RLatLon0.09_PT052H.grib2 2026-04-24 20:57 535K
20260424T18Z_MSC_RDPS_WindU_IsbL-0800_RLatLon0.09_PT052H.grib2 2026-04-24 20:57 578K
20260424T18Z_MSC_RDPS_WindU_IsbL-0850_RLatLon0.09_PT052H.grib2 2026-04-24 20:57 627K
20260424T18Z_MSC_RDPS_WindU_IsbL-0875_RLatLon0.09_PT052H.grib2 2026-04-24 20:57 643K
20260424T18Z_MSC_RDPS_WindU_IsbL-0900_RLatLon0.09_PT052H.grib2 2026-04-24 20:57 655K
20260424T18Z_MSC_RDPS_WindU_IsbL-0925_RLatLon0.09_PT052H.grib2 2026-04-24 20:57 660K
20260424T18Z_MSC_RDPS_WindU_IsbL-0950_RLatLon0.09_PT052H.grib2 2026-04-24 20:57 657K
20260424T18Z_MSC_RDPS_WindU_IsbL-0970_RLatLon0.09_PT052H.grib2 2026-04-24 20:57 657K
20260424T18Z_MSC_RDPS_WindU_IsbL-0985_RLatLon0.09_PT052H.grib2 2026-04-24 20:57 798K
20260424T18Z_MSC_RDPS_WindU_IsbL-1000_RLatLon0.09_PT052H.grib2 2026-04-24 20:57 795K
20260424T18Z_MSC_RDPS_WindU_IsbL-1015_RLatLon0.09_PT052H.grib2 2026-04-24 20:57 790K
20260424T18Z_MSC_RDPS_WindV_AGL-10m_RLatLon0.09_PT052H.grib2 2026-04-24 20:57 435K
20260424T18Z_MSC_RDPS_WindV_AGL-120m_RLatLon0.09_PT052H.grib2 2026-04-24 20:57 418K
20260424T18Z_MSC_RDPS_WindV_AGL-40m_RLatLon0.09_PT052H.grib2 2026-04-24 20:57 421K
20260424T18Z_MSC_RDPS_WindV_AGL-80m_RLatLon0.09_PT052H.grib2 2026-04-24 20:57 419K
20260424T18Z_MSC_RDPS_WindV_IsbL-0001_RLatLon0.09_PT052H.grib2 2026-04-24 20:57 267K
20260424T18Z_MSC_RDPS_WindV_IsbL-0005_RLatLon0.09_PT052H.grib2 2026-04-24 20:57 333K
20260424T18Z_MSC_RDPS_WindV_IsbL-0010_RLatLon0.09_PT052H.grib2 2026-04-24 20:57 307K
20260424T18Z_MSC_RDPS_WindV_IsbL-0020_RLatLon0.09_PT052H.grib2 2026-04-24 20:57 328K
20260424T18Z_MSC_RDPS_WindV_IsbL-0030_RLatLon0.09_PT052H.grib2 2026-04-24 20:57 325K
20260424T18Z_MSC_RDPS_WindV_IsbL-0050_RLatLon0.09_PT052H.grib2 2026-04-24 20:57 355K
20260424T18Z_MSC_RDPS_WindV_IsbL-0100_RLatLon0.09_PT052H.grib2 2026-04-24 20:57 332K
20260424T18Z_MSC_RDPS_WindV_IsbL-0150_RLatLon0.09_PT052H.grib2 2026-04-24 20:57 393K
20260424T18Z_MSC_RDPS_WindV_IsbL-0175_RLatLon0.09_PT052H.grib2 2026-04-24 20:57 420K
20260424T18Z_MSC_RDPS_WindV_IsbL-0200_RLatLon0.09_PT052H.grib2 2026-04-24 20:57 437K
20260424T18Z_MSC_RDPS_WindV_IsbL-0225_RLatLon0.09_PT052H.grib2 2026-04-24 20:57 345K
20260424T18Z_MSC_RDPS_WindV_IsbL-0250_RLatLon0.09_PT052H.grib2 2026-04-24 20:57 346K
20260424T18Z_MSC_RDPS_WindV_IsbL-0275_RLatLon0.09_PT052H.grib2 2026-04-24 20:57 357K
20260424T18Z_MSC_RDPS_WindV_IsbL-0300_RLatLon0.09_PT052H.grib2 2026-04-24 20:57 353K
20260424T18Z_MSC_RDPS_WindV_IsbL-0350_RLatLon0.09_PT052H.grib2 2026-04-24 20:57 361K
20260424T18Z_MSC_RDPS_WindV_IsbL-0400_RLatLon0.09_PT052H.grib2 2026-04-24 20:57 362K
20260424T18Z_MSC_RDPS_WindV_IsbL-0450_RLatLon0.09_PT052H.grib2 2026-04-24 20:57 464K
20260424T18Z_MSC_RDPS_WindV_IsbL-0500_RLatLon0.09_PT052H.grib2 2026-04-24 20:57 466K
20260424T18Z_MSC_RDPS_WindV_IsbL-0550_RLatLon0.09_PT052H.grib2 2026-04-24 20:57 469K
20260424T18Z_MSC_RDPS_WindV_IsbL-0600_RLatLon0.09_PT052H.grib2 2026-04-24 20:57 480K
20260424T18Z_MSC_RDPS_WindV_IsbL-0650_RLatLon0.09_PT052H.grib2 2026-04-24 20:57 497K
20260424T18Z_MSC_RDPS_WindV_IsbL-0700_RLatLon0.09_PT052H.grib2 2026-04-24 20:57 501K
20260424T18Z_MSC_RDPS_WindV_IsbL-0750_RLatLon0.09_PT052H.grib2 2026-04-24 20:57 529K
20260424T18Z_MSC_RDPS_WindV_IsbL-0800_RLatLon0.09_PT052H.grib2 2026-04-24 20:57 582K
20260424T18Z_MSC_RDPS_WindV_IsbL-0850_RLatLon0.09_PT052H.grib2 2026-04-24 20:57 628K
20260424T18Z_MSC_RDPS_WindV_IsbL-0875_RLatLon0.09_PT052H.grib2 2026-04-24 20:57 646K
20260424T18Z_MSC_RDPS_WindV_IsbL-0900_RLatLon0.09_PT052H.grib2 2026-04-24 20:57 657K
20260424T18Z_MSC_RDPS_WindV_IsbL-0925_RLatLon0.09_PT052H.grib2 2026-04-24 20:57 661K
20260424T18Z_MSC_RDPS_WindV_IsbL-0950_RLatLon0.09_PT052H.grib2 2026-04-24 20:57 659K
20260424T18Z_MSC_RDPS_WindV_IsbL-0970_RLatLon0.09_PT052H.grib2 2026-04-24 20:57 654K
20260424T18Z_MSC_RDPS_WindV_IsbL-0985_RLatLon0.09_PT052H.grib2 2026-04-24 20:57 654K
20260424T18Z_MSC_RDPS_WindV_IsbL-1000_RLatLon0.09_PT052H.grib2 2026-04-24 20:57 651K
20260424T18Z_MSC_RDPS_WindV_IsbL-1015_RLatLon0.09_PT052H.grib2 2026-04-24 20:57 785K